Time,TemperatureF,DewpointF,PressureIn,WindDirection,WindDirectionDegrees,WindSpeedMPH,WindSpeedGustMPH,Humidity,HourlyPrecipIn,Conditions,Clouds,dailyrainin,SoftwareType,DateUTC
2013-01-06 00:03:00,67.5,21.2,25.67,North,0,0.0,0.0,17,0.00,,---,0.00,VWS V13.01,2013-01-06 06:03:00,
2013-01-06 00:08:00,67.6,21.3,25.67,North,0,0.0,0.0,17,0.00,,---,0.00,VWS V13.01,2013-01-06 06:08:00,
2013-01-06 00:13:00,67.6,21.3,25.67,North,0,0.0,0.0,17,0.00,,---,0.00,VWS V13.01,2013-01-06 06:13:00,
2013-01-06 00:18:00,67.6,21.3,25.67,North,0,0.0,0.0,17,0.00,,---,0.00,VWS V13.01,2013-01-06 06:18:00,
2013-01-06 00:23:00,67.6,21.3,25.67,North,0,0.0,0.0,17,0.00,,---,0.00,VWS V13.01,2013-01-06 06:23:00,
2013-01-06 00:28:00,68.0,21.6,25.67,North,0,0.0,0.0,17,0.00,,---,0.00,VWS V13.01,2013-01-06 06:28:00,
2013-01-06 00:34:00,67.8,21.5,25.67,North,0,0.0,0.0,17,0.00,,---,0.00,VWS V13.01,2013-01-06 06:34:00,
2013-01-06 00:39:00,67.6,21.3,25.67,North,0,0.0,0.0,17,0.00,,---,0.00,VWS V13.01,2013-01-06 06:39:00,
2013-01-06 00:44:00,67.6,21.3,25.67,North,0,0.0,0.0,17,0.00,,---,0.00,VWS V13.01,2013-01-06 06:44:00,
2013-01-06 00:49:00,67.6,21.3,25.67,North,0,0.0,0.0,17,0.00,,---,0.00,VWS V13.01,2013-01-06 06:49:00,
2013-01-06 00:54:00,67.6,21.3,25.67,North,0,0.0,0.0,17,0.00,,---,0.00,VWS V13.01,2013-01-06 06:54:00,
2013-01-06 00:59:00,67.6,21.3,25.67,North,0,0.0,0.0,17,0.00,,---,0.00,VWS V13.01,2013-01-06 06:59:00,
2013-01-06 01:04:00,67.6,21.3,25.67,North,0,0.0,0.0,17,0.00,,---,0.00,VWS V13.01,2013-01-06 07:04:00,
2013-01-06 01:09:00,67.6,21.3,25.67,North,0,0.0,0.0,17,0.00,,---,0.00,VWS V13.01,2013-01-06 07:09:00,
2013-01-06 01:14:00,67.6,21.3,25.67,North,0,0.0,0.0,17,0.00,,---,0.00,VWS V13.01,2013-01-06 07:14:00,
2013-01-06 01:19:00,67.6,21.3,25.67,North,0,0.0,0.0,17,0.00,,---,0.00,VWS V13.01,2013-01-06 07:19:00,
2013-01-06 01:24:00,67.5,21.2,25.64,North,0,0.0,0.0,17,0.00,,---,0.00,VWS V13.01,2013-01-06 07:24:00,
2013-01-06 01:29:00,67.5,21.2,25.64,North,0,0.0,0.0,17,0.00,,---,0.00,VWS V13.01,2013-01-06 07:29:00,
2013-01-06 01:34:00,67.3,21.0,25.64,North,0,0.0,0.0,17,0.00,,---,0.00,VWS V13.01,2013-01-06 07:34:00,
2013-01-06 01:39:00,67.3,21.0,25.64,North,0,0.0,0.0,17,0.00,,---,0.00,VWS V13.01,2013-01-06 07:39:00,
2013-01-06 01:44:00,67.3,21.0,25.64,North,0,0.0,0.0,17,0.00,,---,0.00,VWS V13.01,2013-01-06 07:44:00,
2013-01-06 01:49:00,67.3,21.0,25.64,North,0,0.0,0.0,17,0.00,,---,0.00,VWS V13.01,2013-01-06 07:49:00,
2013-01-06 01:54:00,67.1,20.9,25.64,North,0,0.0,0.0,17,0.00,,---,0.00,VWS V13.01,2013-01-06 07:54:00,
2013-01-06 01:59:00,67.1,20.9,25.64,North,0,0.0,0.0,17,0.00,,---,0.00,VWS V13.01,2013-01-06 07:59:00,
2013-01-06 02:04:00,67.1,20.9,25.64,North,0,0.0,0.0,17,0.00,,---,0.00,VWS V13.01,2013-01-06 08:04:00,
2013-01-06 02:09:00,66.9,20.7,25.64,North,0,0.0,0.0,17,0.00,,---,0.00,VWS V13.01,2013-01-06 08:09:00,
2013-01-06 02:14:00,66.4,20.3,25.64,North,0,0.0,0.0,17,0.00,,---,0.00,VWS V13.01,2013-01-06 08:14:00,
2013-01-06 02:19:00,66.2,20.1,25.64,North,0,0.0,0.0,17,0.00,,---,0.00,VWS V13.01,2013-01-06 08:19:00,
2013-01-06 02:24:00,66.2,20.1,25.64,North,0,0.0,0.0,17,0.00,,---,0.00,VWS V13.01,2013-01-06 08:24:00,
2013-01-06 02:29:00,66.6,20.4,25.64,North,0,0.0,0.0,17,0.00,,---,0.00,VWS V13.01,2013-01-06 08:29:00,
2013-01-06 02:34:00,66.7,20.6,25.64,North,0,0.0,0.0,17,0.00,,---,0.00,VWS V13.01,2013-01-06 08:34:00,
2013-01-06 02:39:00,66.9,20.7,25.64,North,0,0.0,0.0,17,0.00,,---,0.00,VWS V13.01,2013-01-06 08:39:00,
2013-01-06 02:44:00,66.9,20.7,25.64,North,0,0.0,0.0,17,0.00,,---,0.00,VWS V13.01,2013-01-06 08:44:00,
2013-01-06 02:49:00,66.9,20.7,25.64,North,0,0.0,0.0,17,0.00,,---,0.00,VWS V13.01,2013-01-06 08:49:00,
2013-01-06 02:54:00,66.9,20.7,25.64,North,0,0.0,0.0,17,0.00,,---,0.00,VWS V13.01,2013-01-06 08:54:00,
2013-01-06 02:59:00,66.9,20.7,25.64,North,0,0.0,0.0,17,0.00,,---,0.00,VWS V13.01,2013-01-06 08:59:00,
2013-01-06 03:04:00,66.9,20.7,25.64,North,0,0.0,0.0,17,0.00,,---,0.00,VWS V13.01,2013-01-06 09:04:00,
2013-01-06 03:09:00,67.1,20.9,25.64,North,0,0.0,0.0,17,0.00,,---,0.00,VWS V13.01,2013-01-06 09:09:00,
2013-01-06 03:14:00,67.1,20.9,25.64,North,0,0.0,0.0,17,0.00,,---,0.00,VWS V13.01,2013-01-06 09:14:00,
2013-01-06 03:19:00,67.1,20.9,25.64,North,0,0.0,0.0,17,0.00,,---,0.00,VWS V13.01,2013-01-06 09:19:00,
2013-01-06 03:24:00,67.3,21.0,25.64,North,0,0.0,0.0,17,0.00,,---,0.00,VWS V13.01,2013-01-06 09:24:00,
2013-01-06 03:29:00,67.3,21.0,25.64,North,0,0.0,0.0,17,0.00,,---,0.00,VWS V13.01,2013-01-06 09:29:00,
2013-01-06 03:34:00,67.3,21.0,25.64,North,0,0.0,0.0,17,0.00,,---,0.00,VWS V13.01,2013-01-06 09:34:00,
2013-01-06 03:39:00,67.3,21.0,25.64,North,0,0.0,0.0,17,0.00,,---,0.00,VWS V13.01,2013-01-06 09:39:00,
2013-01-06 03:44:00,66.9,20.7,25.64,North,0,0.0,0.0,17,0.00,,---,0.00,VWS V13.01,2013-01-06 09:44:00,
2013-01-06 03:49:00,66.9,20.7,25.64,North,0,0.0,0.0,17,0.00,,---,0.00,VWS V13.01,2013-01-06 09:49:00,
2013-01-06 03:54:00,66.9,20.7,25.64,North,0,0.0,0.0,17,0.00,,---,0.00,VWS V13.01,2013-01-06 09:54:00,
2013-01-06 03:59:00,66.9,20.7,25.64,North,0,0.0,0.0,17,0.00,,---,0.00,VWS V13.01,2013-01-06 09:59:00,
2013-01-06 04:04:00,67.1,20.9,25.64,North,0,0.0,0.0,17,0.00,,---,0.00,VWS V13.01,2013-01-06 10:04:00,
2013-01-06 04:09:00,67.5,21.2,25.64,North,0,0.0,0.0,17,0.00,,---,0.00,VWS V13.01,2013-01-06 10:09:00,
2013-01-06 04:14:00,67.6,21.3,25.64,North,0,0.0,0.0,17,0.00,,---,0.00,VWS V13.01,2013-01-06 10:14:00,
2013-01-06 04:19:00,67.6,21.3,25.64,North,0,0.0,0.0,17,0.00,,---,0.00,VWS V13.01,2013-01-06 10:19:00,
2013-01-06 04:24:00,67.6,21.3,25.64,North,0,0.0,0.0,17,0.00,,---,0.00,VWS V13.01,2013-01-06 10:24:00,
2013-01-06 04:29:00,67.6,21.3,25.64,North,0,0.0,0.0,17,0.00,,---,0.00,VWS V13.01,2013-01-06 10:29:00,
2013-01-06 04:34:00,67.6,21.3,25.64,North,0,0.0,0.0,17,0.00,,---,0.00,VWS V13.01,2013-01-06 10:34:00,
2013-01-06 04:39:00,67.6,21.3,25.64,North,0,0.0,0.0,17,0.00,,---,0.00,VWS V13.01,2013-01-06 10:39:00,
2013-01-06 04:44:00,67.6,21.3,25.64,North,0,0.0,0.0,17,0.00,,---,0.00,VWS V13.01,2013-01-06 10:44:00,
2013-01-06 04:49:00,67.6,21.3,25.64,North,0,0.0,0.0,17,0.00,,---,0.00,VWS V13.01,2013-01-06 10:49:00,
2013-01-06 04:54:00,67.6,21.3,25.64,North,0,0.0,0.0,17,0.00,,---,0.00,VWS V13.01,2013-01-06 10:54:00,
2013-01-06 04:59:00,67.6,21.3,25.64,North,0,0.0,0.0,17,0.00,,---,0.00,VWS V13.01,2013-01-06 10:59:00,
2013-01-06 05:04:00,67.6,21.3,25.64,North,0,0.0,0.0,17,0.00,,---,0.00,VWS V13.01,2013-01-06 11:04:00,
2013-01-06 05:09:00,67.6,21.3,25.67,North,0,0.0,0.0,17,0.00,,---,0.00,VWS V13.01,2013-01-06 11:09:00,
2013-01-06 05:14:00,67.6,21.3,25.67,North,0,0.0,0.0,17,0.00,,---,0.00,VWS V13.01,2013-01-06 11:14:00,
2013-01-06 05:19:00,67.6,21.3,25.67,North,0,0.0,0.0,17,0.00,,---,0.00,VWS V13.01,2013-01-06 11:19:00,
2013-01-06 05:24:00,67.5,21.2,25.67,North,0,0.0,0.0,17,0.00,,---,0.00,VWS V13.01,2013-01-06 11:24:00,
2013-01-06 05:29:00,67.5,21.2,25.67,North,0,0.0,0.0,17,0.00,,---,0.00,VWS V13.01,2013-01-06 11:29:00,
2013-01-06 05:34:00,67.3,21.0,25.67,North,0,0.0,0.0,17,0.00,,---,0.00,VWS V13.01,2013-01-06 11:34:00,
2013-01-06 05:39:00,67.5,21.2,25.67,North,0,0.0,0.0,17,0.00,,---,0.00,VWS V13.01,2013-01-06 11:39:00,
2013-01-06 05:44:00,67.5,21.2,25.67,North,0,0.0,0.0,17,0.00,,---,0.00,VWS V13.01,2013-01-06 11:44:00,
2013-01-06 05:49:00,67.5,21.2,25.67,North,0,0.0,0.0,17,0.00,,---,0.00,VWS V13.01,2013-01-06 11:49:00,
2013-01-06 05:54:00,67.5,21.2,25.67,North,0,0.0,0.0,17,0.00,,---,0.00,VWS V13.01,2013-01-06 11:54:00,
2013-01-06 05:59:00,67.5,21.2,25.67,North,0,0.0,0.0,17,0.00,,---,0.00,VWS V13.01,2013-01-06 11:59:00,
2013-01-06 06:04:00,67.5,21.2,25.67,North,0,0.0,0.0,17,0.00,,---,0.00,VWS V13.01,2013-01-06 12:04:00,
2013-01-06 06:09:00,67.5,21.2,25.67,North,0,0.0,0.0,17,0.00,,---,0.00,VWS V13.01,2013-01-06 12:09:00,
2013-01-06 06:14:00,67.5,21.2,25.67,North,0,0.0,0.0,17,0.00,,---,0.00,VWS V13.01,2013-01-06 12:14:00,
2013-01-06 06:19:00,67.6,21.3,25.67,North,0,0.0,0.0,17,0.00,,---,0.00,VWS V13.01,2013-01-06 12:19:00,
2013-01-06 06:24:00,67.6,21.3,25.67,North,0,0.0,0.0,17,0.00,,---,0.00,VWS V13.01,2013-01-06 12:24:00,
2013-01-06 06:29:00,67.6,21.3,25.67,North,0,0.0,0.0,17,0.00,,---,0.00,VWS V13.01,2013-01-06 12:29:00,
2013-01-06 06:34:00,67.5,21.2,25.67,North,0,0.0,0.0,17,0.00,,---,0.00,VWS V13.01,2013-01-06 12:34:00,
2013-01-06 06:39:00,67.3,21.0,25.67,North,0,0.0,0.0,17,0.00,,---,0.00,VWS V13.01,2013-01-06 12:39:00,
2013-01-06 06:44:00,67.3,21.0,25.67,North,0,0.0,0.0,17,0.00,,---,0.00,VWS V13.01,2013-01-06 12:44:00,
2013-01-06 06:49:00,67.1,20.9,25.67,North,0,0.0,0.0,17,0.00,,---,0.00,VWS V13.01,2013-01-06 12:49:00,
2013-01-06 06:54:00,66.9,20.7,25.67,North,0,0.0,0.0,17,0.00,,---,0.00,VWS V13.01,2013-01-06 12:54:00,
2013-01-06 06:59:00,66.9,20.7,25.67,North,0,0.0,0.0,17,0.00,,---,0.00,VWS V13.01,2013-01-06 12:59:00,
2013-01-06 07:04:00,66.9,20.7,25.67,North,0,0.0,0.0,17,0.00,,---,0.00,VWS V13.01,2013-01-06 13:04:00,
2013-01-06 07:09:00,66.9,20.7,25.70,North,0,0.0,0.0,17,0.00,,---,0.00,VWS V13.01,2013-01-06 13:09:00,
2013-01-06 07:14:00,66.9,20.7,25.70,North,0,0.0,0.0,17,0.00,,---,0.00,VWS V13.01,2013-01-06 13:14:00,
2013-01-06 07:19:00,66.9,20.7,25.70,North,0,0.0,0.0,17,0.00,,---,0.00,VWS V13.01,2013-01-06 13:19:00,
2013-01-06 07:24:00,66.9,20.7,25.70,North,0,0.0,0.0,17,0.00,,---,0.00,VWS V13.01,2013-01-06 13:24:00,
2013-01-06 07:29:00,67.3,21.0,25.70,North,0,0.0,0.0,17,0.00,,---,0.00,VWS V13.01,2013-01-06 13:29:00,
2013-01-06 07:34:00,67.5,21.2,25.70,North,0,0.0,0.0,17,0.00,,---,0.00,VWS V13.01,2013-01-06 13:34:00,
2013-01-06 07:39:00,67.6,21.3,25.70,North,0,0.0,0.0,17,0.00,,---,0.00,VWS V13.01,2013-01-06 13:39:00,
2013-01-06 07:44:00,68.0,21.6,25.70,North,0,0.0,0.0,17,0.00,,---,0.00,VWS V13.01,2013-01-06 13:44:00,
2013-01-06 07:49:00,68.2,21.7,25.70,North,0,0.0,0.0,17,0.00,,---,0.00,VWS V13.01,2013-01-06 13:49:00,
2013-01-06 07:54:00,68.4,21.9,25.70,North,0,0.0,0.0,17,0.00,,---,0.00,VWS V13.01,2013-01-06 13:54:00,
2013-01-06 07:59:00,68.5,22.0,25.70,North,0,0.0,0.0,17,0.00,,---,0.00,VWS V13.01,2013-01-06 13:59:00,
2013-01-06 08:04:00,68.5,22.0,25.70,North,0,0.0,0.0,17,0.00,,---,0.00,VWS V13.01,2013-01-06 14:04:00,
2013-01-06 08:09:00,68.9,22.3,25.70,North,0,0.0,0.0,17,0.00,,---,0.00,VWS V13.01,2013-01-06 14:09:00,
2013-01-06 08:14:00,68.9,22.3,25.70,North,0,0.0,0.0,17,0.00,,---,0.00,VWS V13.01,2013-01-06 14:14:00,
2013-01-06 08:19:00,70.2,23.4,25.70,North,0,0.0,0.0,17,0.00,,---,0.00,VWS V13.01,2013-01-06 14:19:00,
2013-01-06 08:24:00,71.1,24.1,25.73,North,0,0.0,0.0,17,0.00,,---,0.00,VWS V13.01,2013-01-06 14:24:00,
2013-01-06 08:29:00,71.1,24.1,25.73,North,0,0.0,0.0,17,0.00,,---,0.00,VWS V13.01,2013-01-06 14:29:00,
2013-01-06 08:34:00,71.1,24.1,25.73,North,0,0.0,0.0,17,0.00,,---,0.00,VWS V13.01,2013-01-06 14:34:00,
2013-01-06 08:39:00,72.7,23.9,25.73,North,0,0.0,0.0,16,0.00,,---,0.00,VWS V13.01,2013-01-06 14:39:00,
2013-01-06 08:44:00,72.7,23.9,25.73,North,0,0.0,0.0,16,0.00,,---,0.00,VWS V13.01,2013-01-06 14:44:00,
2013-01-06 08:49:00,72.7,23.9,25.73,North,0,0.0,0.0,16,0.00,,---,0.00,VWS V13.01,2013-01-06 14:49:00,
2013-01-06 08:54:00,73.6,24.7,25.73,North,0,0.0,0.0,16,0.00,,---,0.00,VWS V13.01,2013-01-06 14:54:00,
2013-01-06 08:59:00,73.6,24.7,25.73,North,0,0.0,0.0,16,0.00,,---,0.00,VWS V13.01,2013-01-06 14:59:00,
2013-01-06 09:04:00,73.6,24.7,25.73,North,0,0.0,0.0,16,0.00,,---,0.00,VWS V13.01,2013-01-06 15:04:00,
2013-01-06 09:09:00,73.6,24.7,25.76,North,0,0.0,0.0,16,0.00,,---,0.00,VWS V13.01,2013-01-06 15:09:00,
2013-01-06 09:14:00,73.6,24.7,25.76,North,0,0.0,0.0,16,0.00,,---,0.00,VWS V13.01,2013-01-06 15:14:00,
2013-01-06 09:19:00,74.7,25.5,25.76,North,0,0.0,0.0,16,0.00,,---,0.00,VWS V13.01,2013-01-06 15:19:00,
2013-01-06 09:24:00,74.7,25.5,25.76,North,0,0.0,0.0,16,0.00,,---,0.00,VWS V13.01,2013-01-06 15:24:00,
2013-01-06 09:29:00,75.0,25.8,25.76,North,0,0.0,0.0,16,0.00,,---,0.00,VWS V13.01,2013-01-06 15:29:00,
2013-01-06 09:34:00,75.0,25.8,25.76,North,0,0.0,0.0,16,0.00,,---,0.00,VWS V13.01,2013-01-06 15:34:00,
2013-01-06 09:39:00,74.8,25.7,25.76,North,0,0.0,0.0,16,0.00,,---,0.00,VWS V13.01,2013-01-06 15:39:00,
2013-01-06 09:44:00,74.8,25.7,25.76,North,0,0.0,0.0,16,0.00,,---,0.00,VWS V13.01,2013-01-06 15:44:00,
2013-01-06 09:50:00,74.1,25.1,25.76,North,0,0.0,0.0,16,0.00,,---,0.00,VWS V13.01,2013-01-06 15:50:00,
2013-01-06 09:55:00,74.1,25.1,25.76,North,0,0.0,0.0,16,0.00,,---,0.00,VWS V13.01,2013-01-06 15:55:00,
2013-01-06 10:00:00,74.1,25.1,25.76,North,0,0.0,0.0,16,0.00,,---,0.00,VWS V13.01,2013-01-06 16:00:00,
2013-01-06 10:05:00,75.0,25.8,25.76,North,0,0.0,0.0,16,0.00,,---,0.00,VWS V13.01,2013-01-06 16:05:00,
2013-01-06 10:10:00,75.0,25.8,25.76,North,0,0.0,0.0,16,0.00,,---,0.00,VWS V13.01,2013-01-06 16:10:00,
2013-01-06 10:15:00,75.0,25.8,25.76,North,0,0.0,0.0,16,0.00,,---,0.00,VWS V13.01,2013-01-06 16:15:00,
2013-01-06 10:20:00,75.0,25.8,25.76,North,0,0.0,0.0,16,0.00,,---,0.00,VWS V13.01,2013-01-06 16:20:00,
2013-01-06 10:25:00,75.0,25.8,25.76,North,0,0.0,0.0,16,0.00,,---,0.00,VWS V13.01,2013-01-06 16:25:00,
2013-01-06 10:30:00,75.0,25.8,25.76,North,0,0.0,0.0,16,0.00,,---,0.00,VWS V13.01,2013-01-06 16:30:00,
2013-01-06 10:35:00,75.0,25.8,25.76,North,0,0.0,0.0,16,0.00,,---,0.00,VWS V13.01,2013-01-06 16:35:00,
2013-01-06 10:40:00,75.0,25.8,25.76,North,0,0.0,0.0,16,0.00,,---,0.00,VWS V13.01,2013-01-06 16:40:00,
2013-01-06 10:45:00,75.4,24.6,25.76,North,0,0.0,0.0,15,0.00,,---,0.00,VWS V13.01,2013-01-06 16:45:00,
2013-01-06 10:50:00,75.4,24.6,25.79,North,0,0.0,0.0,15,0.00,,---,0.00,VWS V13.01,2013-01-06 16:50:00,
2013-01-06 10:55:00,75.4,24.6,25.79,North,0,0.0,0.0,15,0.00,,---,0.00,VWS V13.01,2013-01-06 16:55:00,
2013-01-06 11:00:00,75.4,24.6,25.79,North,0,0.0,0.0,15,0.00,,---,0.00,VWS V13.01,2013-01-06 17:00:00,
2013-01-06 11:05:00,75.4,24.6,25.79,North,0,0.0,0.0,15,0.00,,---,0.00,VWS V13.01,2013-01-06 17:05:00,
2013-01-06 11:10:00,76.3,25.3,25.79,North,0,0.0,0.0,15,0.00,,---,0.00,VWS V13.01,2013-01-06 17:10:00,
2013-01-06 11:15:00,76.3,25.3,25.79,North,0,0.0,0.0,15,0.00,,---,0.00,VWS V13.01,2013-01-06 17:15:00,
2013-01-06 11:20:00,76.3,25.3,25.79,North,0,0.0,0.0,15,0.00,,---,0.00,VWS V13.01,2013-01-06 17:20:00,
2013-01-06 11:25:00,76.3,25.3,25.79,North,0,0.0,0.0,15,0.00,,---,0.00,VWS V13.01,2013-01-06 17:25:00,
2013-01-06 11:30:00,76.3,25.3,25.79,North,0,0.0,0.0,15,0.00,,---,0.00,VWS V13.01,2013-01-06 17:30:00,
2013-01-06 11:35:00,76.8,25.7,25.79,North,0,0.0,0.0,15,0.00,,---,0.00,VWS V13.01,2013-01-06 17:35:00,
2013-01-06 11:40:00,76.8,25.7,25.79,North,0,0.0,0.0,15,0.00,,---,0.00,VWS V13.01,2013-01-06 17:40:00,
2013-01-06 11:45:00,76.8,25.7,25.79,North,0,0.0,0.0,15,0.00,,---,0.00,VWS V13.01,2013-01-06 17:45:00,
2013-01-06 11:50:00,76.8,25.7,25.79,North,0,0.0,0.0,15,0.00,,---,0.00,VWS V13.01,2013-01-06 17:50:00,
2013-01-06 11:55:00,76.8,25.7,25.76,North,0,0.0,0.0,15,0.00,,---,0.00,VWS V13.01,2013-01-06 17:55:00,
2013-01-06 12:00:00,76.8,25.7,25.76,North,0,0.0,0.0,15,0.00,,---,0.00,VWS V13.01,2013-01-06 18:00:00,
2013-01-06 12:05:00,76.8,25.7,25.76,North,0,0.0,0.0,15,0.00,,---,0.00,VWS V13.01,2013-01-06 18:05:00,
2013-01-06 12:10:00,76.8,25.7,25.76,North,0,0.0,0.0,15,0.00,,---,0.00,VWS V13.01,2013-01-06 18:10:00,
2013-01-06 12:15:00,76.8,25.7,25.76,North,0,0.0,0.0,15,0.00,,---,0.00,VWS V13.01,2013-01-06 18:15:00,
2013-01-06 12:20:00,76.8,25.7,25.76,North,0,0.0,0.0,15,0.00,,---,0.00,VWS V13.01,2013-01-06 18:20:00,
2013-01-06 12:25:00,76.8,25.7,25.76,North,0,0.0,0.0,15,0.00,,---,0.00,VWS V13.01,2013-01-06 18:25:00,
2013-01-06 12:30:00,76.8,25.7,25.76,North,0,0.0,0.0,15,0.00,,---,0.00,VWS V13.01,2013-01-06 18:30:00,
2013-01-06 12:35:00,76.8,25.7,25.76,North,0,0.0,0.0,15,0.00,,---,0.00,VWS V13.01,2013-01-06 18:35:00,
2013-01-06 12:40:00,76.8,25.7,25.76,North,0,0.0,0.0,15,0.00,,---,0.00,VWS V13.01,2013-01-06 18:40:00,
2013-01-06 12:45:00,76.8,25.7,25.76,North,0,0.0,0.0,15,0.00,,---,0.00,VWS V13.01,2013-01-06 18:45:00,
2013-01-06 12:50:00,76.8,25.7,25.76,North,0,0.0,0.0,15,0.00,,---,0.00,VWS V13.01,2013-01-06 18:50:00,
2013-01-06 12:55:00,76.8,25.7,25.73,North,0,0.0,0.0,15,0.00,,---,0.00,VWS V13.01,2013-01-06 18:55:00,
2013-01-06 13:00:00,76.8,25.7,25.73,North,0,0.0,0.0,15,0.00,,---,0.00,VWS V13.01,2013-01-06 19:00:00,
2013-01-06 13:05:00,76.8,25.7,25.73,North,0,0.0,0.0,15,0.00,,---,0.00,VWS V13.01,2013-01-06 19:05:00,
2013-01-06 13:10:00,76.8,25.7,25.73,North,0,0.0,0.0,15,0.00,,---,0.00,VWS V13.01,2013-01-06 19:10:00,
2013-01-06 13:15:00,76.8,25.7,25.73,North,0,0.0,0.0,15,0.00,,---,0.00,VWS V13.01,2013-01-06 19:15:00,
2013-01-06 13:20:00,76.8,25.7,25.70,North,0,0.0,0.0,15,0.00,,---,0.00,VWS V13.01,2013-01-06 19:20:00,
2013-01-06 13:25:00,76.8,25.7,25.70,North,0,0.0,0.0,15,0.00,,---,0.00,VWS V13.01,2013-01-06 19:25:00,
2013-01-06 13:30:00,76.8,25.7,25.70,North,0,0.0,0.0,15,0.00,,---,0.00,VWS V13.01,2013-01-06 19:30:00,
2013-01-06 13:36:00,76.8,25.7,25.70,North,0,0.0,0.0,15,0.00,,---,0.00,VWS V13.01,2013-01-06 19:36:00,
2013-01-06 13:46:00,76.8,25.7,25.70,North,0,0.0,0.0,15,0.00,,---,0.00,VWS V13.01,2013-01-06 19:46:00,
2013-01-06 13:51:00,76.8,25.7,25.67,North,0,0.0,0.0,15,0.00,,---,0.00,VWS V13.01,2013-01-06 19:51:00,
2013-01-06 13:56:00,76.8,25.7,25.67,North,0,0.0,0.0,15,0.00,,---,0.00,VWS V13.01,2013-01-06 19:56:00,
2013-01-06 14:01:00,76.8,25.7,25.67,North,0,0.0,0.0,15,0.00,,---,0.00,VWS V13.01,2013-01-06 20:01:00,
2013-01-06 14:06:00,76.8,25.7,25.67,North,0,0.0,0.0,15,0.00,,---,0.00,VWS V13.01,2013-01-06 20:06:00,
2013-01-06 14:11:00,76.8,25.7,25.67,North,0,0.0,0.0,15,0.00,,---,0.00,VWS V13.01,2013-01-06 20:11:00,
2013-01-06 14:14:00,76.8,25.7,25.67,North,0,0.0,0.0,15,0.00,,---,0.00,VWS V13.01,2013-01-06 20:14:00,
2013-01-06 14:19:00,76.8,25.7,25.67,North,0,0.0,0.0,15,0.00,,---,0.00,VWS V13.01,2013-01-06 20:19:00,
2013-01-06 14:24:00,76.8,25.7,25.67,North,0,0.0,0.0,15,0.00,,---,0.00,VWS V13.01,2013-01-06 20:24:00,
2013-01-06 14:29:00,76.8,25.7,25.67,North,0,0.0,0.0,15,0.00,,---,0.00,VWS V13.01,2013-01-06 20:29:00,
2013-01-06 14:34:00,71.4,27.0,25.67,North,0,0.0,0.0,19,0.00,,---,0.00,VWS V13.01,2013-01-06 20:34:00,
2013-01-06 14:39:00,72.0,27.5,25.67,North,0,0.0,0.0,19,0.00,,---,0.00,VWS V13.01,2013-01-06 20:39:00,
2013-01-06 14:44:00,72.0,27.5,25.67,North,0,0.0,0.0,19,0.00,,---,0.00,VWS V13.01,2013-01-06 20:44:00,
2013-01-06 14:49:00,72.0,27.5,25.67,North,0,0.0,0.0,19,0.00,,---,0.00,VWS V13.01,2013-01-06 20:49:00,
2013-01-06 14:54:00,72.0,27.5,25.70,North,0,0.0,0.0,19,0.00,,---,0.00,VWS V13.01,2013-01-06 20:54:00,
2013-01-06 14:59:00,72.0,27.5,25.70,North,0,0.0,0.0,19,0.00,,---,0.00,VWS V13.01,2013-01-06 20:59:00,
2013-01-06 15:00:00,72.0,27.5,25.70,North,0,0.0,0.0,19,0.00,,---,0.00,VWS V13.01,2013-01-06 21:00:00,
2013-01-06 15:05:00,72.0,27.5,25.70,North,0,0.0,0.0,19,0.00,,---,0.00,VWS V13.01,2013-01-06 21:05:00,
2013-01-06 15:10:00,72.0,27.5,25.70,North,0,0.0,0.0,19,0.00,,---,0.00,VWS V13.01,2013-01-06 21:10:00,
2013-01-06 15:15:00,72.0,27.5,25.70,North,0,0.0,0.0,19,0.00,,---,0.00,VWS V13.01,2013-01-06 21:15:00,
2013-01-06 15:20:00,72.0,27.5,25.70,North,0,0.0,0.0,19,0.00,,---,0.00,VWS V13.01,2013-01-06 21:20:00,
2013-01-06 15:25:00,72.0,27.5,25.70,North,0,0.0,0.0,19,0.00,,---,0.00,VWS V13.01,2013-01-06 21:25:00,
2013-01-06 15:30:00,72.0,27.5,25.70,North,0,0.0,0.0,19,0.00,,---,0.00,VWS V13.01,2013-01-06 21:30:00,
2013-01-06 15:35:00,72.0,27.5,25.67,North,0,0.0,0.0,19,0.00,,---,0.00,VWS V13.01,2013-01-06 21:35:00,
2013-01-06 15:40:00,72.0,27.5,25.67,North,0,0.0,0.0,19,0.00,,---,0.00,VWS V13.01,2013-01-06 21:40:00,
2013-01-06 15:46:00,72.0,27.5,25.67,North,0,0.0,0.0,19,0.00,,---,0.00,VWS V13.01,2013-01-06 21:46:00,
2013-01-06 15:51:00,72.0,27.5,25.70,North,0,0.0,0.0,19,0.00,,---,0.00,VWS V13.01,2013-01-06 21:51:00,
2013-01-06 15:56:00,72.0,27.5,25.70,North,0,0.0,0.0,19,0.00,,---,0.00,VWS V13.01,2013-01-06 21:56:00,
2013-01-06 16:01:00,72.0,27.5,25.70,North,0,0.0,0.0,19,0.00,,---,0.00,VWS V13.01,2013-01-06 22:01:00,
2013-01-06 16:06:00,72.0,27.5,25.67,North,0,0.0,0.0,19,0.00,,---,0.00,VWS V13.01,2013-01-06 22:06:00,
2013-01-06 16:11:00,72.0,27.5,25.67,North,0,0.0,0.0,19,0.00,,---,0.00,VWS V13.01,2013-01-06 22:11:00,
2013-01-06 16:16:00,72.0,27.5,25.67,North,0,0.0,0.0,19,0.00,,---,0.00,VWS V13.01,2013-01-06 22:16:00,
2013-01-06 16:21:00,72.0,27.5,25.67,North,0,0.0,0.0,19,0.00,,---,0.00,VWS V13.01,2013-01-06 22:21:00,
2013-01-06 16:26:00,72.0,27.5,25.67,North,0,0.0,0.0,19,0.00,,---,0.00,VWS V13.01,2013-01-06 22:26:00,
2013-01-06 16:31:00,72.0,27.5,25.67,North,0,0.0,0.0,19,0.00,,---,0.00,VWS V13.01,2013-01-06 22:31:00,
2013-01-06 16:36:00,69.6,26.8,25.67,North,0,0.0,0.0,20,0.00,,---,0.00,VWS V13.01,2013-01-06 22:36:00,
2013-01-06 16:41:00,69.6,26.8,25.67,North,0,0.0,0.0,20,0.00,,---,0.00,VWS V13.01,2013-01-06 22:41:00,
2013-01-06 16:47:00,69.6,26.8,25.67,North,0,0.0,0.0,20,0.00,,---,0.00,VWS V13.01,2013-01-06 22:47:00,
2013-01-06 16:52:00,68.9,26.2,25.67,North,0,0.0,0.0,20,0.00,,---,0.00,VWS V13.01,2013-01-06 22:52:00,
2013-01-06 16:57:00,68.9,26.2,25.67,North,0,0.0,0.0,20,0.00,,---,0.00,VWS V13.01,2013-01-06 22:57:00,
2013-01-06 17:02:00,68.9,26.2,25.67,North,0,0.0,0.0,20,0.00,,---,0.00,VWS V13.01,2013-01-06 23:02:00,
2013-01-06 17:07:00,68.5,28.2,25.67,North,0,0.0,0.0,22,0.00,,---,0.00,VWS V13.01,2013-01-06 23:07:00,
2013-01-06 17:12:00,68.5,28.2,25.67,North,0,0.0,0.0,22,0.00,,---,0.00,VWS V13.01,2013-01-06 23:12:00,
2013-01-06 17:17:00,68.5,28.2,25.67,North,0,0.0,0.0,22,0.00,,---,0.00,VWS V13.01,2013-01-06 23:17:00,
2013-01-06 17:22:00,68.5,28.2,25.67,North,0,0.0,0.0,22,0.00,,---,0.00,VWS V13.01,2013-01-06 23:22:00,
2013-01-06 17:27:00,67.6,28.5,25.67,North,0,0.0,0.0,23,0.00,,---,0.00,VWS V13.01,2013-01-06 23:27:00,
2013-01-06 17:32:00,67.5,28.4,25.67,North,0,0.0,0.0,23,0.00,,---,0.00,VWS V13.01,2013-01-06 23:32:00,
2013-01-06 17:37:00,67.3,28.2,25.67,North,0,0.0,0.0,23,0.00,,---,0.00,VWS V13.01,2013-01-06 23:37:00,
2013-01-06 17:42:00,67.3,28.2,25.67,North,0,0.0,0.0,23,0.00,,---,0.00,VWS V13.01,2013-01-06 23:42:00,
2013-01-06 17:47:00,67.3,28.2,25.67,North,0,0.0,0.0,23,0.00,,---,0.00,VWS V13.01,2013-01-06 23:47:00,
2013-01-06 17:52:00,66.9,27.9,25.67,North,0,0.0,0.0,23,0.00,,---,0.00,VWS V13.01,2013-01-06 23:52:00,
2013-01-06 17:57:00,66.9,27.9,25.67,North,0,0.0,0.0,23,0.00,,---,0.00,VWS V13.01,2013-01-06 23:57:00,
2013-01-06 18:02:00,66.6,27.6,25.67,North,0,0.0,0.0,23,0.00,,---,0.00,VWS V13.01,2013-01-07 00:02:00,
2013-01-06 18:07:00,66.6,27.6,25.67,North,0,0.0,0.0,23,0.00,,---,0.00,VWS V13.01,2013-01-07 00:07:00,
2013-01-06 18:12:00,66.4,27.5,25.67,North,0,0.0,0.0,23,0.00,,---,0.00,VWS V13.01,2013-01-07 00:12:00,
2013-01-06 18:17:00,66.4,27.5,25.67,North,0,0.0,0.0,23,0.00,,---,0.00,VWS V13.01,2013-01-07 00:17:00,
2013-01-06 18:22:00,66.4,28.5,25.67,North,0,0.0,0.0,24,0.00,,---,0.00,VWS V13.01,2013-01-07 00:22:00,
2013-01-06 18:27:00,66.4,28.5,25.67,North,0,0.0,0.0,24,0.00,,---,0.00,VWS V13.01,2013-01-07 00:27:00,
2013-01-06 18:32:00,66.4,28.5,25.67,North,0,0.0,0.0,24,0.00,,---,0.00,VWS V13.01,2013-01-07 00:32:00,
2013-01-06 18:37:00,66.4,28.5,25.67,North,0,0.0,0.0,24,0.00,,---,0.00,VWS V13.01,2013-01-07 00:37:00,
2013-01-06 18:42:00,66.4,28.5,25.67,North,0,0.0,0.0,24,0.00,,---,0.00,VWS V13.01,2013-01-07 00:42:00,
2013-01-06 18:47:00,66.6,27.6,25.67,North,0,0.0,0.0,23,0.00,,---,0.00,VWS V13.01,2013-01-07 00:47:00,
2013-01-06 18:52:00,66.6,27.6,25.67,North,0,0.0,0.0,23,0.00,,---,0.00,VWS V13.01,2013-01-07 00:52:00,
2013-01-06 18:57:00,66.6,27.6,25.67,North,0,0.0,0.0,23,0.00,,---,0.00,VWS V13.01,2013-01-07 00:57:00,
2013-01-06 19:02:00,66.6,27.6,25.67,North,0,0.0,0.0,23,0.00,,---,0.00,VWS V13.01,2013-01-07 01:02:00,
2013-01-06 19:07:00,66.7,27.8,25.70,North,0,0.0,0.0,23,0.00,,---,0.00,VWS V13.01,2013-01-07 01:07:00,
2013-01-06 19:12:00,66.7,27.8,25.70,North,0,0.0,0.0,23,0.00,,---,0.00,VWS V13.01,2013-01-07 01:12:00,
2013-01-06 19:17:00,66.7,27.8,25.70,North,0,0.0,0.0,23,0.00,,---,0.00,VWS V13.01,2013-01-07 01:17:00,
2013-01-06 19:22:00,66.7,27.8,25.67,North,0,0.0,0.0,23,0.00,,---,0.00,VWS V13.01,2013-01-07 01:22:00,
2013-01-06 19:27:00,66.6,27.6,25.67,North,0,0.0,0.0,23,0.00,,---,0.00,VWS V13.01,2013-01-07 01:27:00,
2013-01-06 19:32:00,66.4,27.5,25.67,North,0,0.0,0.0,23,0.00,,---,0.00,VWS V13.01,2013-01-07 01:32:00,
2013-01-06 19:37:00,66.0,27.2,25.67,North,0,0.0,0.0,23,0.00,,---,0.00,VWS V13.01,2013-01-07 01:37:00,
2013-01-06 19:42:00,66.0,27.2,25.67,North,0,0.0,0.0,23,0.00,,---,0.00,VWS V13.01,2013-01-07 01:42:00,
2013-01-06 19:47:00,66.0,27.2,25.67,North,0,0.0,0.0,23,0.00,,---,0.00,VWS V13.01,2013-01-07 01:47:00,
2013-01-06 19:52:00,66.2,27.3,25.70,North,0,0.0,0.0,23,0.00,,---,0.00,VWS V13.01,2013-01-07 01:52:00,
2013-01-06 19:57:00,66.2,27.3,25.70,North,0,0.0,0.0,23,0.00,,---,0.00,VWS V13.01,2013-01-07 01:57:00,
2013-01-06 20:02:00,66.4,27.5,25.70,North,0,0.0,0.0,23,0.00,,---,0.00,VWS V13.01,2013-01-07 02:02:00,
2013-01-06 20:07:00,66.4,27.5,25.70,North,0,0.0,0.0,23,0.00,,---,0.00,VWS V13.01,2013-01-07 02:07:00,
2013-01-06 20:12:00,66.4,27.5,25.70,North,0,0.0,0.0,23,0.00,,---,0.00,VWS V13.01,2013-01-07 02:12:00,
2013-01-06 20:17:00,66.2,27.3,25.70,North,0,0.0,0.0,23,0.00,,---,0.00,VWS V13.01,2013-01-07 02:17:00,
2013-01-06 20:22:00,66.2,27.3,25.70,North,0,0.0,0.0,23,0.00,,---,0.00,VWS V13.01,2013-01-07 02:22:00,
2013-01-06 20:27:00,66.2,27.3,25.70,North,0,0.0,0.0,23,0.00,,---,0.00,VWS V13.01,2013-01-07 02:27:00,
2013-01-06 20:32:00,66.2,27.3,25.70,North,0,0.0,0.0,23,0.00,,---,0.00,VWS V13.01,2013-01-07 02:32:00,
2013-01-06 20:37:00,66.2,27.3,25.70,North,0,0.0,0.0,23,0.00,,---,0.00,VWS V13.01,2013-01-07 02:37:00,
2013-01-06 20:42:00,66.0,27.2,25.70,North,0,0.0,0.0,23,0.00,,---,0.00,VWS V13.01,2013-01-07 02:42:00,
2013-01-06 20:47:00,66.0,27.2,25.70,North,0,0.0,0.0,23,0.00,,---,0.00,VWS V13.01,2013-01-07 02:47:00,
2013-01-06 20:52:00,66.0,27.2,25.70,North,0,0.0,0.0,23,0.00,,---,0.00,VWS V13.01,2013-01-07 02:52:00,
2013-01-06 20:57:00,66.0,27.2,25.70,North,0,0.0,0.0,23,0.00,,---,0.00,VWS V13.01,2013-01-07 02:57:00,
2013-01-06 21:02:00,66.0,27.2,25.70,North,0,0.0,0.0,23,0.00,,---,0.00,VWS V13.01,2013-01-07 03:02:00,
2013-01-06 21:07:00,66.0,27.2,25.70,North,0,0.0,0.0,23,0.00,,---,0.00,VWS V13.01,2013-01-07 03:07:00,
2013-01-06 21:12:00,65.8,27.0,25.70,North,0,0.0,0.0,23,0.00,,---,0.00,VWS V13.01,2013-01-07 03:12:00,
2013-01-06 21:17:00,65.8,27.0,25.70,North,0,0.0,0.0,23,0.00,,---,0.00,VWS V13.01,2013-01-07 03:17:00,
2013-01-06 21:22:00,65.7,26.9,25.70,North,0,0.0,0.0,23,0.00,,---,0.00,VWS V13.01,2013-01-07 03:22:00,
2013-01-06 21:27:00,65.7,26.9,25.70,North,0,0.0,0.0,23,0.00,,---,0.00,VWS V13.01,2013-01-07 03:27:00,
2013-01-06 21:32:00,65.7,26.9,25.70,North,0,0.0,0.0,23,0.00,,---,0.00,VWS V13.01,2013-01-07 03:32:00,
2013-01-06 21:37:00,65.7,26.9,25.67,North,0,0.0,0.0,23,0.00,,---,0.00,VWS V13.01,2013-01-07 03:37:00,
2013-01-06 21:42:00,65.5,26.7,25.67,North,0,0.0,0.0,23,0.00,,---,0.00,VWS V13.01,2013-01-07 03:42:00,
2013-01-06 21:47:00,65.3,26.6,25.67,North,0,0.0,0.0,23,0.00,,---,0.00,VWS V13.01,2013-01-07 03:47:00,
2013-01-06 21:52:00,65.1,26.4,25.70,North,0,0.0,0.0,23,0.00,,---,0.00,VWS V13.01,2013-01-07 03:52:00,
2013-01-06 21:57:00,65.1,26.4,25.70,North,0,0.0,0.0,23,0.00,,---,0.00,VWS V13.01,2013-01-07 03:57:00,
2013-01-06 22:02:00,64.9,26.3,25.70,North,0,0.0,0.0,23,0.00,,---,0.00,VWS V13.01,2013-01-07 04:02:00,
2013-01-06 22:07:00,64.9,26.3,25.70,North,0,0.0,0.0,23,0.00,,---,0.00,VWS V13.01,2013-01-07 04:07:00,
2013-01-06 22:12:00,64.9,26.3,25.70,North,0,0.0,0.0,23,0.00,,---,0.00,VWS V13.01,2013-01-07 04:12:00,
2013-01-06 22:17:00,64.9,26.3,25.70,North,0,0.0,0.0,23,0.00,,---,0.00,VWS V13.01,2013-01-07 04:17:00,
2013-01-06 22:22:00,64.8,26.1,25.70,North,0,0.0,0.0,23,0.00,,---,0.00,VWS V13.01,2013-01-07 04:22:00,
2013-01-06 22:27:00,64.8,26.1,25.70,North,0,0.0,0.0,23,0.00,,---,0.00,VWS V13.01,2013-01-07 04:27:00,
2013-01-06 22:32:00,64.8,26.1,25.70,North,0,0.0,0.0,23,0.00,,---,0.00,VWS V13.01,2013-01-07 04:32:00,
2013-01-06 22:37:00,64.6,26.0,25.70,North,0,0.0,0.0,23,0.00,,---,0.00,VWS V13.01,2013-01-07 04:37:00,
2013-01-06 22:42:00,64.4,25.8,25.70,North,0,0.0,0.0,23,0.00,,---,0.00,VWS V13.01,2013-01-07 04:42:00,
2013-01-06 22:47:00,64.4,25.8,25.70,North,0,0.0,0.0,23,0.00,,---,0.00,VWS V13.01,2013-01-07 04:47:00,
2013-01-06 22:52:00,64.2,26.7,25.70,North,0,0.0,0.0,24,0.00,,---,0.00,VWS V13.01,2013-01-07 04:52:00,
2013-01-06 22:57:00,64.2,26.7,25.70,North,0,0.0,0.0,24,0.00,,---,0.00,VWS V13.01,2013-01-07 04:57:00,
2013-01-06 23:00:00,64.2,26.7,25.70,North,0,0.0,0.0,24,0.00,,---,0.00,VWS V13.01,2013-01-07 05:00:00,
2013-01-06 23:01:00,64.2,26.7,25.70,North,0,0.0,0.0,24,0.00,,---,0.00,VWS V13.01,2013-01-07 05:01:00,
2013-01-06 23:02:00,64.2,26.7,25.70,North,0,0.0,0.0,24,0.00,,---,0.00,VWS V13.01,2013-01-07 05:02:00,
2013-01-06 23:07:00,63.9,25.4,25.70,North,0,0.0,0.0,23,0.00,,---,0.00,VWS V13.01,2013-01-07 05:07:00,
2013-01-06 23:12:00,63.7,25.2,25.70,North,0,0.0,0.0,23,0.00,,---,0.00,VWS V13.01,2013-01-07 05:12:00,
2013-01-06 23:17:00,63.9,25.4,25.70,North,0,0.0,0.0,23,0.00,,---,0.00,VWS V13.01,2013-01-07 05:17:00,
2013-01-06 23:22:00,63.9,26.4,25.67,North,0,0.0,0.0,24,0.00,,---,0.00,VWS V13.01,2013-01-07 05:22:00,
2013-01-06 23:27:00,64.0,25.5,25.67,North,0,0.0,0.0,23,0.00,,---,0.00,VWS V13.01,2013-01-07 05:27:00,
2013-01-06 23:32:00,64.0,25.5,25.67,North,0,0.0,0.0,23,0.00,,---,0.00,VWS V13.01,2013-01-07 05:32:00,
2013-01-06 23:37:00,64.2,23.5,25.67,North,0,0.0,0.0,21,0.00,,---,0.00,VWS V13.01,2013-01-07 05:37:00,
2013-01-06 23:42:00,64.2,23.5,25.67,North,0,0.0,0.0,21,0.00,,---,0.00,VWS V13.01,2013-01-07 05:42:00,
2013-01-06 23:47:00,64.0,23.3,25.67,North,0,0.0,0.0,21,0.00,,---,0.00,VWS V13.01,2013-01-07 05:47:00,
2013-01-06 23:52:00,63.5,22.9,25.67,North,0,0.0,0.0,21,0.00,,---,0.00,VWS V13.01,2013-01-07 05:52:00,
2013-01-06 23:57:00,63.0,22.5,25.67,North,0,0.0,0.0,21,0.00,,---,0.00,VWS V13.01,2013-01-07 05:57:00,